Wind_Speed
28 26 24 23 22 22 20 19 20 22 23 23 24 25 25 25 22 12 3 3 1 3 3 5 8 10 13 15 15 18 19 21 25 7 8 14 27 27 14 19 15 13 14 16
31 29 28 26 26 25 23 21 23 24 25 25 24 24 24 22 17 11 4 2 1 3 2 3 6 12 16 15 15 15 17 20 24 8 8 15 22 24 13 17 22 18 13 17
34 32 30 29 27 26 24 23 23 25 26 25 24 21 21 20 15 6 1 3 1 3 5 6 12 18 20 20 16 15 16 14 21 19 6 18 15 29 28 22 19 16 16 14
36 35 32 30 30 27 25 25 25 25 26 26 22 19 17 12 9 9 5 4 1 13 22 14 28 13 21 15 19 17 16 15 13 15 3 12 21 19 23 22 20 17 18 16
36 37 35 33 31 29 28 28 27 27 26 26 24 17 7 8 8 6 4 8 4 11 23 17 14 14 9 16 19 20 16 17 14 7 5 6 16 22 22 29 25 19 20 18
37 37 37 35 32 30 29 29 28 28 27 27 24 15 10 12 10 9 11 13 7 9 15 12 9 22 29 24 20 24 19 15 17 14 10 14 15 21 23 22 24 25 23 19
36 35 36 35 33 32 31 29 29 29 28 30 28 15 11 17 17 16 17 11 15 18 15 18 22 14 20 21 24 28 24 20 17 20 20 20 17 21 21 25 29 26 27 22
38 34 33 35 33 33 32 31 31 31 31 31 26 14 8 19 24 27 24 22 23 30 25 31 32 22 24 30 34 38 36 28 24 23 25 28 26 24 23 24 31 29 23 25
39 35 37 35 35 35 34 32 32 33 31 26 18 4 5 15 23 26 37 34 30 34 30 28 34 29 24 24 35 39 39 39 37 32 28 30 32 30 29 28 27 33 30 27
44 40 39 37 35 35 33 33 33 33 29 22 19 9 5 17 19 27 21 37 35 40 43 48 37 28 26 33 31 41 29 19 50 38 38 35 35 35 37 34 34 30 34 24
43 42 40 39 39 36 35 34 35 33 30 26 19 18 20 13 28 41 33 30 36 36 39 44 37 35 38 35 47 49 46 43 40 39 43 43 42 40 40 39 38 39 35 40
39 41 40 43 43 39 37 34 32 29 30 28 26 31 31 29 42 35 41 49 46 33 36 37 41 47 41 39 37 34 40 45 42 42 46 45 48 49 46 44 46 46 43 39
38 41 38 42 39 36 35 33 31 30 29 28 32 27 34 42 41 37 39 48 52 34 36 39 44 48 44 51 51 45 38 42 50 56 65 56 54 50 51 50 51 52 51 49
38 38 36 40 34 32 31 32 29 30 27 28 33 29 24 30 30 35 40 47 49 47 47 50 54 55 53 55 62 65 65 67 67 66 64 58 55 55 51 53 54 56 58 57
35 34 31 34 27 28 29 25 25 28 33 32 32 27 24 29 32 38 44 48 50 51 52 52 55 58 62 65 68 69 64 63 63 60 55 52 49 45 48 53 56 60 61 63
33 33 30 35 34 29 24 25 27 34 40 42 29 31 31 32 37 43 47 52 57 58 62 62 65 68 69 65 62 60 58 58 62 60 59 56 54 54 54 54 55 59 65 68
33 33 35 36 35 30 30 38 37 34 34 40 40 37 35 38 44 49 53 55 58 63 68 70 70 66 63 61 59 60 62 64 70 73 70 68 66 65 63 60 58 61 63 67
31 33 34 37 38 36 34 31 34 37 36 40 38 38 41 46 50 53 55 60 62 64 65 62 60 61 66 70 73 73 74 73 74 79 81 75 73 73 72 69 66 66 66 67
29 30 28 29 32 35 30 25 27 33 38 36 38 43 46 50 54 58 61 64 67 64 60 60 62 67 72 76 80 82 82 83 82 83 85 86 81 80 79 77 74 72 71 71
25 25 23 24 26 25 19 27 33 35 32 39 43 46 50 54 57 61 65 66 63 62 65 69 73 76 80 82 85 87 86 81 76 70 63 60 58 57 58 60 66 71 74 76
26 25 25 25 24 20 22 32 36 34 35 40 45 50 54 57 61 64 64 63 65 70 74 77 81 82 84 85 76 65 60 57 54 51 50 48 48 48 47 50 54 59 71 80
26 27 27 27 25 24 28 33 37 38 40 43 46 50 54 59 62 59 59 62 68 73 79 83 85 83 66 53 49 48 44 41 40 40 39 37 37 37 36 40 47 53 59 77
28 33 31 30 28 27 34 36 38 40 42 46 50 54 58 60 56 57 62 68 74 78 81 82 68 57 50 45 42 39 40 39 36 36 37 34 31 35 37 36 39 46 54 67
32 35 34 33 31 33 36 38 39 41 45 49 53 57 57 53 55 62 68 73 74 78 71 63 63 61 55 50 44 42 39 40 39 37 40 40 36 34 34 35 37 41 50 57
30 38 41 33 37 35 36 39 41 44 47 50 56 53 50 52 60 66 70 70 73 61 60 58 57 52 45 38 36 38 39 40 43 45 45 45 44 38 36 33 35 41 46 52
34 38 39 38 40 35 37 39 44 46 49 53 49 48 50 56 62 65 67 69 54 50 49 41 32 29 26 22 22 26 29 30 32 34 40 42 45 42 40 42 37 38 43 48
Wind_Direction
242 247 253 255 257 266 276 283 292 300 306 313 319 324 329 337 339 338 160 148 238 304 34 8 352 344 345 347 335 341 345 353 354 229 231 190 183 188 216 215 208 211 192 182
242 245 251 255 261 268 275 279 290 300 306 308 317 327 337 336 337 338 150 176 17 27 358 326 321 325 323 328 335 337 340 352 355 357 232 198 194 201 248 223 223 217 191 196
242 243 250 256 260 264 270 277 289 296 301 307 316 331 327 328 329 328 144 271 135 34 350 336 334 323 311 314 328 329 340 351 348 355 239 205 195 210 239 216 222 225 202 204
242 244 247 252 258 263 271 277 284 291 297 303 311 321 333 320 338 325 271 319 196 61 339 293 330 326 336 323 321 325 336 337 341 348 285 200 207 219 228 215 230 230 221 216
245 246 248 251 256 263 269 275 280 284 291 297 305 318 304 302 337 339 258 268 237 44 254 289 297 306 300 335 324 317 325 321 322 322 283 211 215 233 242 240 238 235 223 226
246 248 248 252 256 262 267 273 281 285 289 296 294 307 268 257 257 222 285 269 265 234 250 290 273 299 277 305 319 307 312 307 307 298 270 260 245 233 241 248 244 249 238 238
246 250 251 252 256 261 266 273 280 285 289 289 295 311 261 226 227 232 263 273 270 265 266 257 252 299 318 304 300 291 296 298 293 288 279 260 258 239 236 241 248 250 240 244
246 252 256 254 255 261 267 273 279 283 283 292 305 289 237 236 235 239 253 266 282 272 268 266 264 270 313 303 291 295 294 287 280 277 275 273 261 253 249 243 235 239 245 244
247 250 254 256 258 261 267 272 274 279 288 289 287 224 197 218 243 247 259 271 277 272 278 280 270 275 277 298 302 287 289 296 282 274 267 269 268 263 253 250 248 242 238 242
246 246 254 257 260 264 266 270 276 281 285 272 267 207 176 192 179 181 235 258 272 272 271 269 272 262 262 267 289 288 286 283 280 279 273 268 265 263 260 253 248 244 232 233
247 248 250 260 260 262 269 274 278 278 271 270 240 200 188 202 211 208 242 257 268 267 272 269 271 266 264 280 289 280 276 269 274 271 270 270 268 258 254 254 250 240 238 229
249 251 249 253 259 265 269 274 274 276 276 268 255 210 213 224 234 247 256 255 268 265 272 278 283 283 274 259 297 276 276 272 267 279 281 274 266 264 257 248 246 242 236 230
247 249 252 256 261 266 267 267 270 272 266 269 270 241 232 232 241 249 266 271 277 271 265 265 273 274 272 276 270 276 269 277 279 282 287 280 273 265 259 252 243 241 236 231
249 253 254 257 259 259 264 267 270 271 274 271 264 261 252 255 249 256 269 275 279 288 293 291 287 284 282 283 287 286 281 279 281 279 278 276 272 268 260 252 246 238 237 233
252 255 255 261 257 252 251 256 264 273 270 272 265 265 259 265 272 274 275 277 283 283 281 281 286 288 284 283 283 283 285 282 278 278 277 274 268 265 262 254 246 239 236 234
254 254 256 256 257 253 249 228 223 236 262 273 274 265 270 276 278 279 285 291 292 296 298 296 293 291 288 285 282 280 280 281 282 280 277 273 269 263 259 255 249 240 233 232
253 257 256 255 255 247 231 228 244 258 270 260 268 272 275 278 280 285 288 291 294 293 294 298 297 294 291 289 287 286 285 284 285 283 279 276 273 269 264 257 251 247 238 234
257 259 256 253 250 246 243 247 251 254 255 257 268 276 279 283 286 289 292 289 289 291 292 292 293 292 293 295 294 291 287 284 282 282 281 276 273 269 266 260 252 246 241 234
257 259 256 250 246 243 249 251 243 247 259 271 276 280 285 289 291 292 293 295 297 299 298 297 294 293 294 294 293 292 290 287 283 279 277 277 273 268 263 258 252 245 239 232
255 248 242 239 241 243 242 244 250 264 273 278 284 287 289 291 293 295 299 301 301 300 298 298 298 297 297 296 294 292 290 288 284 282 279 275 272 267 261 255 248 241 235 230
250 241 240 240 242 245 246 253 263 270 274 279 283 288 292 294 298 302 303 303 303 302 302 301 300 299 297 296 296 295 294 288 283 282 281 276 270 267 260 252 246 240 231 226
242 241 240 240 243 243 252 261 270 277 282 285 288 291 295 300 301 302 302 303 303 304 304 303 303 302 303 300 299 300 298 294 290 287 284 273 271 265 260 253 244 238 233 224
242 244 243 247 252 258 262 266 276 281 286 289 293 298 302 304 302 304 304 305 307 307 306 306 305 303 301 298 297 302 302 301 296 293 288 280 272 266 262 255 246 239 232 225
248 251 253 253 258 261 267 275 279 284 288 292 298 301 303 301 306 305 307 309 308 309 310 311 308 303 297 291 286 291 295 299 298 291 292 287 279 270 259 257 251 242 233 227
250 259 259 260 262 268 274 278 284 286 291 297 300 302 301 307 307 308 310 311 314 314 317 318 314 316 304 288 288 292 302 300 291 286 277 277 278 275 266 259 254 245 239 230
253 254 262 269 271 272 275 281 282 290 295 299 301 302 306 308 310 312 315 319 318 321 331 337 352 5 2 2 0 356 347 341 332 321 296 279 271 263 257 257 253 249 240 236
Height
10965 10968 10971 10972 10973 10974 10975 10976 10974 10973 10972 10971 10969 10967 10965 10962 10960 10960 10957 10958 10958 10958 10961 10960 10960 10958 10958 10959 10956 10952 10951 10951 10948 10945 10945 10948 10950 10955 10954 10956 10959 10960 10961 10962
10960 10963 10965 10967 10969 10970 10971 10972 10970 10969 10967 10966 10966 10964 10960 10958 10957 10955 10957 10957 10959 10959 10960 10960 10958 10958 10956 10955 10955 10954 10950 10948 10946 10945 10946 10948 10952 10953 10950 10953 10956 10958 10959 10961
10955 10958 10960 10962 10964 10966 10967 10967 10967 10965 10963 10962 10962 10961 10956 10954 10953 10952 10954 10960 10961 10963 10966 10963 10961 10957 10957 10956 10954 10954 10952 10949 10948 10947 10947 10949 10951 10951 10949 10954 10955 10956 10957 10959
10949 10951 10955 10958 10959 10961 10961 10962 10962 10961 10959 10958 10958 10958 10955 10952 10951 10950 10951 10956 10963 10966 10969 10969 10963 10959 10958 10956 10958 10954 10952 10951 10950 10949 10948 10948 10949 10950 10951 10954 10955 10955 10956 10957
10943 10945 10949 10951 10953 10956 10957 10957 10957 10956 10954 10954 10954 10955 10952 10950 10951 10949 10948 10953 10959 10963 10969 10966 10957 10951 10950 10951 10957 10956 10951 10949 10949 10950 10950 10949 10950 10951 10952 10955 10956 10955 10954 10955
10937 10939 10942 10945 10948 10950 10950 10951 10951 10950 10950 10948 10948 10951 10951 10949 10948 10946 10947 10953 10956 10962 10961 10956 10959 10951 10945 10945 10948 10953 10949 10947 10946 10947 10948 10948 10948 10949 10951 10951 10951 10952 10953 10956
10932 10934 10937 10940 10942 10943 10944 10945 10944 10944 10944 10940 10941 10947 10947 10945 10945 10944 10944 10947 10953 10951 10947 10948 10947 10949 10946 10944 10946 10950 10947 10944 10943 10943 10943 10943 10943 10945 10949 10947 10946 10946 10949 10953
10925 10930 10931 10933 10935 10936 10936 10938 10938 10937 10936 10936 10939 10939 10943 10940 10940 10941 10942 10946 10946 10942 10939 10935 10939 10943 10943 10944 10943 10943 10942 10943 10943 10941 10938 10937 10939 10940 10943 10944 10943 10942 10945 10946
10920 10924 10922 10926 10927 10928 10930 10930 10930 10929 10931 10930 10932 10933 10934 10934 10942 10950 10942 10940 10940 10936 10937 10933 10931 10935 10940 10937 10940 10940 10936 10945 10938 10935 10934 10932 10932 10935 10938 10940 10938 10939 10943 10944
10911 10916 10915 10917 10919 10920 10922 10923 10923 10922 10925 10924 10924 10926 10928 10929 10939 10925 10926 10933 10933 10930 10930 10934 10936 10934 10934 10931 10934 10931 10949 10942 10935 10926 10923 10924 10924 10925 10928 10931 10934 10931 10936 10939
10902 10906 10910 10909 10910 10912 10915 10916 10915 10915 10914 10916 10918 10918 10921 10924 10929 10933 10930 10925 10923 10924 10923 10923 10923 10923 10926 10926 10917 10916 10919 10923 10918 10916 10912 10912 10910 10913 10917 10920 10923 10922 10924 10929
10894 10897 10901 10897 10900 10904 10906 10907 10907 10907 10906 10907 10911 10913 10912 10915 10918 10924 10920 10913 10913 10918 10919 10920 10915 10907 10911 10913 10905 10904 10898 10899 10895 10897 10900 10901 10897 10896 10902 10907 10909 10911 10914 10915
10885 10885 10892 10890 10895 10899 10898 10898 10899 10899 10897 10899 10898 10906 10907 10910 10912 10916 10910 10903 10897 10907 10911 10911 10905 10899 10901 10889 10891 10894 10888 10886 10882 10879 10878 10880 10880 10883 10885 10890 10893 10895 10899 10902
10877 10880 10884 10882 10889 10891 10892 10891 10892 10892 10891 10892 10889 10894 10901 10902 10906 10907 10901 10894 10890 10891 10892 10890 10884 10880 10881 10876 10870 10864 10867 10868 10863 10860 10860 10863 10861 10861 10863 10868 10871 10877 10880 10883
10872 10874 10877 10876 10882 10884 10884 10886 10887 10886 10883 10886 10882 10888 10898 10898 10897 10895 10891 10884 10881 10881 10882 10880 10874 10871 10867 10861 10855 10848 10849 10841 10838 10837 10839 10841 10844 10844 10842 10844 10848 10854 10859 10862
10865 10868 10871 10870 10870 10877 10881 10879 10878 10878 10876 10876 10878 10880 10884 10888 10887 10882 10878 10873 10866 10861 10855 10855 10852 10845 10839 10839 10837 10833 10827 10820 10813 10814 10815 10816 10819 10821 10825 10826 10828 10831 10834 10839
10859 10861 10862 10861 10863 10869 10870 10867 10869 10872 10875 10873 10871 10873 10876 10877 10874 10871 10868 10864 10858 10851 10840 10832 10825 10819 10815 10812 10811 10809 10807 10804 10794 10786 10788 10789 10792 10795 10800 10804 10807 10808 10811 10816
10852 10852 10853 10852 10854 10858 10861 10868 10867 10868 10865 10861 10866 10868 10866 10863 10859 10859 10857 10850 10846 10842 10835 10824 10814 10805 10797 10789 10783 10782 10778 10777 10775 10763 10754 10761 10765 10768 10769 10774 10779 10782 10785 10792
10844 10844 10844 10844 10847 10850 10858 10860 10858 10859 10856 10859 10858 10855 10854 10851 10847 10844 10837 10833 10826 10816 10810 10806 10800 10792 10784 10774 10764 10756 10748 10741 10742 10739 10733 10728 10732 10733 10734 10738 10745 10752 10758 10765
10837 10838 10838 10840 10842 10847 10853 10850 10848 10849 10855 10850 10847 10846 10843 10839 10834 10828 10821 10815 10806 10798 10791 10784 10776 10768 10759 10749 10738 10730 10721 10712 10705 10702 10701 10699 10697 10698 10700 10704 10710 10719 10729 10737
10831 10833 10834 10836 10839 10845 10847 10843 10840 10845 10847 10844 10840 10835 10831 10825 10819 10813 10803 10793 10784 10776 10769 10760 10752 10743 10733 10721 10708 10700 10692 10684 10680 10679 10677 10676 10674 10674 10676 10677 10681 10689 10697 10709
10826 10827 10829 10831 10836 10840 10839 10836 10835 10835 10834 10832 10830 10826 10821 10814 10805 10797 10788 10780 10771 10761 10748 10734 10723 10713 10703 10695 10689 10682 10675 10669 10666 10665 10663 10661 10659 10658 10658 10658 10660 10666 10673 10681
10821 10819 10823 10826 10830 10833 10829 10829 10827 10825 10823 10819 10815 10810 10805 10797 10789 10782 10773 10763 10753 10740 10726 10713 10701 10693 10686 10680 10675 10671 10662 10657 10655 10652 10648 10647 10646 10645 10643 10643 10644 10648 10653 10659
10812 10813 10816 10819 10822 10822 10821 10819 10818 10815 10811 10806 10802 10797 10791 10782 10776 10767 10757 10747 10735 10721 10706 10694 10684 10673 10667 10663 10661 10658 10653 10647 10643 10639 10634 10631 10631 10631 10630 10630 10631 10632 10635 10640
10809 10805 10803 10812 10810 10814 10812 10809 10806 10802 10799 10796 10790 10785 10778 10772 10762 10752 10741 10731 10717 10703 10693 10680 10666 10652 10642 10642 10644 10643 10641 10635 10630 10624 10620 10616 10615 10615 10616 10616 10616 10618 10619 10624
10798 10797 10799 10799 10798 10803 10801 10798 10792 10791 10787 10783 10779 10771 10766 10759 10749 10738 10726 10714 10702 10694 10684 10669 10657 10647 10639 10638 10638 10636 10632 10625 10618 10611 10604 10599 10597 10597 10599 10599 10600 10602 10605 10609